Location: Sungai Apap
(2.6167°N, 113.3833°E)
Time: 15:15:15
(UTC+00:00)

DMSP B5D2-2 - Pass Details

Date: 25 May 2024
Orbit: 788 x 802 km, 98.3° (Epoch: 14 June)

Event Time Altitude Azimuth Distance (km) Brightness Sun altitude
Rises 20:46:47 0° 170° (S) 3,282 7.1 -21.4°
Reaches altitude 10° 20:49:06 10° 171° (S) 2,353 6.4 -20.9°
Maximum altitude 20:54:18 81° 257° (WSW) 804 3.9 -19.7°
Drops below altitude 10° 20:59:30 10° 345° (NNW) 2,355 6.6 -18.5°
Sets 21:01:50 0° 346° (NNW) 3,285 7.4 -18.0°
